Content
SEND FEEDBACK

Daily
Averages
Monthly
Summary
Spain

BILBAO, SPAIN


Home > Europe > Spain
Elevation: 112 feet     Latitude: 43 18N     Longitude: 002 56W

WEATHER
 
SELECT A DAY
Number of Records: 231,262;   Date Range: 7/1/96 - 10/24/14
 
SHARE

PRINT THIS DATA

[ ← Previous Day ]
WEATHER ALMANAC - DECEMBER 8, 2013
[ Next Day → ]
[ °C ]   °F
Weather ElementAverageHighLow
Temperature41.9 °F57.2 °F (2:30 pm)32 °F (5:00 am)
Dewpoint38 °F46.4 °F (3:00 pm)30.2 °F (5:00 am)
Humidity87.2 %100 % (5:30 am)62 % (1:30 pm)
Barometer30.33 in30.36 in (10:30 am)30.30 in (5:00 am)
Wind Speed2.2 mph5.8 mph (4:30 pm)
Weather ElementAverage
Visibility5.2 mi
Wind DirectionENE (55.5 °)

Weather ElementTotal
Precipitation---
Heating Degree Days20.4 (Base 65)
Averaged from 38 records on December 8, 2013
WEATHER CONDITIONS BREAKOUT
WIND DIRECTION BREAKOUT
WEATHER BY HOUR - DECEMBER 8, 2013
[ °C ]   °F
Local TimeTemperatureDewpointHumidityBarometerVisibilityWind DirectionWind SpeedGust SpeedPrecipitationEventsConditions
5:00 AM32.0 °F30.2 °F93 %30.30 in6.2 miVariable2.3 mphPartly Cloudy
5:30 AM32.0 °F32.0 °F100 %30.30 in6.2 miESE (110°)4.6 mphPartly Cloudy
6:00 AM32.0 °F32.0 °F100 %30.30 in4.3 miESE (110°)3.5 mphPartly Cloudy
6:30 AM32.0 °F30.2 °F93 %30.30 in4.3 miESE (110°)3.5 mphPartly Cloudy
7:00 AM32.0 °F32.0 °F100 %30.30 in4.3 miEast (100°)3.5 mphPartly Cloudy
7:30 AM32.0 °F30.2 °F93 %30.30 inVariable2.3 mphClear
8:00 AM32.0 °F30.2 °F93 %30.33 inEast (100°)3.5 mphClear
8:30 AM32.0 °F30.2 °F93 %30.33 inESE (110°)3.5 mphClear
9:00 AM32.0 °F30.2 °F93 %30.33 in5.0 miEast (100°)3.5 mphPartly Cloudy
9:30 AM32.0 °F32.0 °F100 %30.33 in5.0 miVariable2.3 mphPartly Cloudy
10:00 AM35.6 °F33.8 °F93 %30.33 in5.0 miEast (100°)3.5 mphPartly Cloudy
10:30 AM37.4 °F35.6 °F93 %30.36 in5.6 miVariable1.2 mphPartly Cloudy
11:00 AM39.2 °F37.4 °F93 %30.36 in5.6 miVariable2.3 mphPartly Cloudy
11:30 AM42.8 °F39.2 °F87 %30.36 in5.6 miVariable2.3 mphPartly Cloudy
12:00 PM46.4 °F41.0 °F81 %30.36 inVariable2.3 mphClear
12:30 PM48.2 °F41.0 °F76 %30.33 inCalmClear
1:00 PM53.6 °F42.8 °F67 %30.33 inCalmClear
1:30 PM53.6 °F41.0 °F62 %30.33 inCalmClear
2:00 PM55.4 °F42.8 °F63 %30.33 inCalmClear
2:30 PM57.2 °F44.6 °F63 %30.33 inCalmClear
3:00 PM57.2 °F46.4 °F67 %30.33 inVariable2.3 mphClear
3:30 PM55.4 °F46.4 °F72 %30.30 inWNW (290°)3.5 mphClear
4:00 PM53.6 °F44.6 °F72 %30.33 inNW (310°)4.6 mphClear
4:30 PM53.6 °F44.6 °F72 %30.33 inNW (320°)5.8 mphClear
5:00 PM51.8 °F44.6 °F76 %30.33 inVariable2.3 mphClear
5:30 PM48.2 °F42.8 °F82 %30.33 inVariable1.2 mphClear
6:00 PM46.4 °F42.8 °F87 %30.33 inCalmClear
6:30 PM42.8 °F41.0 °F93 %30.33 inSE (130°)3.5 mphClear
7:00 PM42.8 °F41.0 °F93 %30.33 inVariable2.3 mphClear
7:30 PM41.0 °F39.2 °F93 %30.36 inCalmClear
8:00 PM41.0 °F39.2 °F93 %30.36 inVariable1.2 mphClear
8:30 PM39.2 °F37.4 °F93 %30.36 inVariable2.3 mphClear
9:00 PM37.4 °F37.4 °F100 %30.36 inVariable1.2 mphClear
9:30 PM39.2 °F39.2 °F100 %30.36 inEast (100°)3.5 mphClear
10:00 PM37.4 °F37.4 °F100 %30.36 inESE (120°)3.5 mphClear
10:30 PM39.2 °F37.4 °F93 %30.36 inVariable1.2 mphClear
11:00 PM39.2 °F37.4 °F93 %30.36 inCalmClear
11:30 PM37.4 °F37.4 °F100 %30.36 inCalmClear
Hourly data recorded from LEBB, located miles away from Bilbao, Spain







STORIES FROM OUR PARTNERS